Location: Marcé
(47.5801°N, 0.3280°W)
Time: 11:03:22
(UTC+01:00)

Vanguard 3 - Pass Details

Date: 30 November 2021
Orbit: 508 x 3260 km, 33.3° (Epoch: 17 January)

Event Time Altitude Azimuth Distance (km) Brightness Sun altitude
Exits shadow 05:50:36 - 229° (SW) 6,912 11.5 -25.7°
Reaches altitude 10° 05:54:26 10° 224° (SW) 6,180 11.3 -25.0°
Maximum altitude 06:11:14 40° 165° (SSE) 3,659 10.5 -22.2°
Drops below altitude 10° 06:23:22 10° 103° (ESE) 4,527 12.2 -20.2°
Sets 06:26:35 0° 95° (E) 5,185 12.9 -19.7°
